GW7303 Weather Reports


time (UTC)temp
C
wind
direction
speed
KPH
gust
KPH
rain 1hr
cm
rain 24hr
cm
rain mn
cm
humidity
%
barometer
mb
20260510040012 15 211 1.6 6.4 0.00 0.00 0.00 56 1012.5
20260510034518 15 204 1.6 6.4 0.00 0.00 0.00 56 1012.7
20260510033021 15 195 1.6 4.8 0.00 0.00 0.00 57 1012.6
20260510031540 15 139 0.0 0.0 0.00 0.00 0.00 56 1012.5
20260510030014 16 123 0.0 6.4 0.00 0.00 0.00 52 1012.3
20260510024513 16 207 0.0 4.8 0.00 0.00 0.00 51 1012.0
20260510023018 16 211 3.2 9.7 0.00 0.00 0.00 49 1011.8
20260510021530 17 167 4.8 11.3 0.00 0.00 0.00 49 1011.8
20260510020026 17 204 3.2 12.9 0.00 0.00 0.00 49 1011.5
20260510014510 16 188 1.6 6.4 0.00 0.00 0.00 50 1011.2
20260510013015 17 107 0.0 3.2 0.00 0.00 0.00 54 1011.0
20260510011520 17 215 0.0 6.4 0.00 0.00 0.00 52 1010.6
20260510010005 17 200 0.0 4.8 0.00 0.00 0.00 55 1010.4
20260510004508 17 91 0.0 0.0 0.00 0.00 0.00 62 1010.2
20260510003012 18 127 0.0 3.2 0.00 0.00 0.00 59 1009.9
20260510001517 19 176 1.6 4.8 0.00 0.00 0.00 56 1009.5
20260510000011 20 107 0.0 0.0 0.00 0.00 0.00 54 1009.4
20260509234510 21 115 1.6 6.4 0.00 0.00 0.00 52 1009.2
20260509233009 21 77 1.6 6.4 0.00 0.00 0.00 52 1009.2
20260509231517 20 271 0.0 4.8 0.00 0.00 0.00 53 1009.2
20260509230022 21 132 0.0 0.0 0.00 0.00 0.00 51 1009.1
20260509224504 21 91 0.0 0.0 0.00 0.00 0.00 51 1009.0
20260509223012 21 33 0.0 0.0 0.00 0.00 0.00 51 1009.1
20260509221511 21 100 0.0 9.7 0.00 0.00 0.00 50 1009.1
20260509220019 21 103 3.2 9.7 0.00 0.00 0.00 48 1008.9
20260509214523 21 122 1.6 14.5 0.00 0.00 0.00 48 1008.8
20260509213005 21 72 1.6 11.3 0.00 0.00 0.00 50 1008.8
20260509211517 21 89 4.8 16.1 0.00 0.00 0.00 48 1008.6
20260509210016 21 66 0.0 8.0 0.00 0.00 0.00 49 1008.6
20260509204519 21 101 1.6 8.0 0.00 0.00 0.00 47 1008.6
20260509203026 22 66 1.6 16.1 0.00 0.00 0.00 46 1008.5
20260509201528 22 118 1.6 11.3 0.00 0.00 0.00 44 1008.4
20260509200010 22 8 3.2 9.7 0.00 0.00 0.00 44 1008.4
20260509194513 22 118 4.8 12.9 0.00 0.00 0.00 45 1008.7
20260509193022 21 89 4.8 12.9 0.00 0.00 0.00 48 1008.8
20260509191526 21 54 1.6 8.0 0.00 0.00 0.00 48 1009.2
20260509190035 21 252 1.6 11.3 0.00 0.00 0.00 47 1009.2
20260509184517 21 138 0.0 3.2 0.00 0.00 0.00 46 1009.3
20260509183019 21 88 0.0 6.4 0.00 0.00 0.00 46 1009.6
20260509181521 22 98 0.0 11.3 0.00 0.00 0.00 46 1009.5
20260509180005 21 270 4.8 9.7 0.00 0.00 0.00 48 1009.8
20260509174509 21 242 3.2 8.0 0.00 0.00 0.00 47 1010.1
20260509173024 21 70 1.6 8.0 0.00 0.00 0.00 50 1010.2
20260509171521 21 134 1.6 11.3 0.00 0.00 0.00 52 1010.6
20260509170011 20 136 1.6 9.7 0.00 0.00 0.00 52 1010.7
20260509164508 20 131 1.6 9.7 0.00 0.00 0.00 52 1010.6
20260509163016 20 135 3.2 14.5 0.00 0.00 0.00 50 1010.7
20260509161512 20 224 3.2 11.3 0.00 0.00 0.00 50 1010.5
20260509160019 20 276 0.0 9.7 0.00 0.00 0.00 49 1010.5
20260509154504 20 198 1.6 9.7 0.00 0.00 0.00 55 1010.6
20260509153016 19 205 3.2 8.0 0.00 0.00 0.00 54 1010.8
20260509151515 19 155 1.6 8.0 0.00 0.00 0.00 55 1010.9
20260509150016 18 40 0.0 4.8 0.00 0.00 0.00 57 1010.7
20260509144518 18 120 0.0 3.2 0.00 0.00 0.00 56 1010.9
20260509143012 18 91 0.0 6.4 0.00 0.00 0.00 57 1010.7
20260509141512 18 118 1.6 8.0 0.00 0.00 0.00 58 1010.7
20260509140015 17 147 0.0 4.8 0.00 0.00 0.00 61 1011.0
20260509134519 16 206 3.2 8.0 0.00 0.00 0.00 62 1011.3
20260509133020 15 229 0.0 9.7 0.00 0.00 0.00 65 1011.6
20260509131508 15 132 1.6 8.0 0.00 0.00 0.00 66 1011.8
20260509130037 14 240 0.0 1.6 0.00 0.00 0.00 66 1011.7
20260509124528 13 229 0.0 0.0 0.00 0.00 0.00 65 1011.7
20260509123035 13 109 0.0 3.2 0.00 0.00 0.00 64 1011.7
20260509121524 13 246 0.0 0.0 0.00 0.00 0.00 64 1011.6
20260509120030 13 122 0.0 1.6 0.00 0.00 0.00 64 1011.9
20260509114518 12 122 0.0 3.2 0.00 0.00 0.00 63 1011.7
20260509113020 12 122 0.0 3.2 0.00 0.00 0.00 64 1011.7
20260509111525 12 105 0.0 0.0 0.00 0.00 0.00 64 1011.7
20260509110029 12 100 1.6 3.2 0.00 0.00 0.00 63 1011.6
20260509104525 11 107 0.0 0.0 0.00 0.00 0.00 64 1011.5
20260509103018 11 119 0.0 0.0 0.00 0.00 0.00 66 1011.7
20260509101533 10 96 0.0 0.0 0.00 0.00 0.00 66 1011.7
20260509100026 11 96 0.0 0.0 0.00 0.00 0.00 65 1011.7
20260509094531 11 96 0.0 0.0 0.00 0.00 0.00 64 1011.7
20260509093027 10 91 0.0 1.6 0.00 0.00 0.00 65 1011.8
20260509091518 10 98 0.0 0.0 0.00 0.00 0.00 63 1011.9
20260509090023 11 98 0.0 0.0 0.00 0.00 0.00 61 1011.9
20260509084504 11 98 0.0 0.0 0.00 0.00 0.00 59 1012.0
20260509083010 11 98 0.0 0.0 0.00 0.00 0.00 59 1012.0
20260509081514 11 98 0.0 0.0 0.00 0.00 0.00 60 1011.9
20260509080019 12 84 0.0 0.0 0.00 0.00 0.00 57 1012.0
20260509074522 12 84 0.0 0.0 0.00 0.00 0.00 57 1012.1
20260509073009 12 113 0.0 4.8 0.00 0.00 0.00 56 1012.3
20260509071511 12 98 3.2 9.7 0.00 0.00 0.00 56 1012.4
20260509070018 12 121 0.0 4.8 0.00 0.00 0.00 57 1012.6
20260509064520 12 80 1.6 6.4 0.00 0.00 0.00 58 1012.6
20260509063034 12 77 0.0 0.0 0.00 0.00 0.00 58 1012.8
20260509061513 12 86 0.0 0.0 0.00 0.00 0.00 57 1013.0
20260509060012 11 86 0.0 1.6 0.00 0.00 0.00 58 1013.0
20260509054521 11 69 0.0 0.0 0.00 0.00 0.00 58 1013.1
20260509053024 11 170 0.0 1.6 0.00 0.00 0.00 58 1013.2
20260509051526 11 243 0.0 4.8 0.00 0.00 0.00 58 1013.4
20260509050030 11 246 0.0 0.0 0.00 0.00 0.00 57 1013.3
20260509044513 11 246 0.0 0.0 0.00 0.00 0.00 56 1013.2
20260509043020 11 246 0.0 0.0 0.00 0.00 0.00 55 1013.1
20260509041525 12 245 0.0 0.0 0.00 0.00 0.00 54 1013.1